Flag for Germany Weather past 2 weeks in Lindlar, North Rhine-Westphalia, Germany

Now
68 °F

Passing clouds.


Feels Like: 68 °F
Forecast: 47 / 65 °F
Wind: 3 mph from Northwest

Location: Koeln / Bonn

Current Time: May 22, 2015 at 7:57:01 PM

Latest Report: May 22, 2015 at 7:00 PM


Visibility: 31 mi

Pressure: 30.19 "Hg

Humidity: 38%

Dew point: 41 °F

Location of LindlarLocation

Historic Weather in Lindlar — Graph

°F

Lindlar temperature yesterday

Maximum temperature yesterday: 62 °F (at 6:00 PM)
Minimum temperature yesterday: 40 °F (at 6:00 AM)
Average temperature yesterday: 51 °F

Past Weeks' High & Low Weather Summary

 TemperatureHumidityPressure
High79 °F (May 11, 5:00 PM)100% (May 17, 3:00 AM)30.35 "Hg (May 17, 3:00 AM)
Low40 °F (May 21, 6:00 AM)31% (May 14, 4:00 PM)29.66 "Hg (May 18, 8:00 PM)
Average57 °F65%30.07 "Hg
* Reported May 7 6:00 PM — May 22 6:00 PM, Lindlar, Weather by CustomWeather, © 2015

Note: Actual official high and low records may vary slightly from our data, if they occured in-between our weather recording intervals... More about our weather records

Advertising

Lindlar weather history for previous 24 hours

 ConditionsComfort  
Time TempWeatherWind HumidityBarometerVisibility
6:00 PM
Fri, May 22
68 °FPassing clouds.3 mph38%30.20 "Hg31 mi
5:00 PM68 °FScattered clouds.2 mph35%30.22 "Hg28 mi
4:00 PM66 °FScattered clouds.2 mph36%30.24 "Hg28 mi
3:00 PM67 °FScattered clouds.3 mph35%30.25 "Hg31 mi
2:00 PM68 °FScattered clouds.3 mph34%30.27 "Hg31 mi
1:00 PM65 °FScattered clouds.2 mph35%30.30 "Hg25 mi
12:00 PM63 °FPartly sunny.2 mph40%30.32 "Hg25 mi
11:00 AM60 °FOvercast.2 mph46%30.33 "Hg22 mi
10:00 AM58 °FOvercast.1 mph62%30.34 "Hg22 mi
9:00 AM55 °FOvercast.1 mph65%30.34 "Hg22 mi
8:00 AM51 °FOvercast.1 mph82%30.34 "Hg19 mi
7:00 AM49 °FOvercast.2 mph86%30.34 "Hg19 mi
6:00 AM47 °FOvercast.2 mph87%30.34 "Hg19 mi
5:00 AM47 °FOvercast.1 mph88%30.34 "Hg22 mi
4:00 AM49 °FOvercast.1 mph79%30.34 "Hg25 mi
3:00 AM49 °FOvercast.1 mph80%30.34 "Hg25 mi
2:00 AM50 °FPassing clouds.2 mph78%30.34 "Hg25 mi
1:00 AM53 °FOvercast.3 mph69%30.34 "Hg25 mi
12:00 AM54 °FOvercast.2 mph70%30.34 "Hg25 mi
11:00 PM
Thu, May 21
55 °FOvercast.1 mph68%30.33 "Hg25 mi
10:00 PM54 °FOvercast.2 mph64%30.32 "Hg25 mi
9:00 PM56 °FPartly sunny.1 mph59%30.30 "Hg28 mi
8:00 PM58 °FPartly sunny.2 mph53%30.29 "Hg28 mi
7:00 PM61 °FScattered clouds.3 mph44%30.28 "Hg28 mi
Weather by CustomWeather, © 2015

See weather overviewHow to use our weather pages